Showing default

GNOMES-5, 60574

Orbit data source: Space-Track

GNOMES-5, 60574 is a payload satellite owned by PlanetiQ (US) in SSO that was launched on Fri, 16 Aug 2024 UTC via an FALCON 9 launch vehicle from the Air Force Western Test Range (AFWTR). Payload-class satellites include a variety of spacecraft equipped with specific instruments for various scientific and technological missions. These include communications satellites like Starlink; space stations such as the ISS; scientific satellites like the Hubble; Earth observation satellites from companies like Planet Labs, Umbra, and HawkEye 360; GPS; miniature CubeSats for education and research; and military/defense satellites.

Loading next visibility...
Identifier
60574, 2024-149DL
Orbit
SSO
Country
Flag of USUS
Related business
Manufacturer
Blue Canyon
Mission
Operational Commercial Communications
Bus & Motor
XSAT, Unknown motor
Mass
~41 kg wet, ~41 kg dry
Launch date (UTC)
2024-08-16 (2 years ago)
Launch vehicle
FALCON 9
Launch site
Air Force Western Test Range (AFWTR)
Object type
Payload
Rocket body
Debris
Shape & HBR
Box + 2 Pan, 0.3 m
Radar Cross Section
0.162 m², Medium (>0.1 m² and < 1m²)

Expand to show TLE details & history
Last TLE update: 6 hours ago

TLE from 6 hours ago
0 GNOMES-5
1 60574U 24149DL  26126.16746149  .00004643  00000-0  36983-3 0  9996
2 60574  97.6947 204.6114 0006112 268.4459  91.6065 15.00836954 93855
Epoch: 2026-05-06T04:01Z
TLE epoch observation values (Epoch: 2026-05-06T04:01:08.672Z)
Latitude
-0.00002°
Longitude
-79.70657°
Altitude
567.492 km
Speed
7.577 km/s
True Right ascension
13h 38m 26s
True Declination
0° 00' 00"
Sunlit
Object was in full shadow at epoch
Visualization orbit readout
Latitude
Unknown
Longitude
Unknown
Altitude
Unknown
Speed
Unknown
Apparent Right ascension
Unknown
Apparent Declination
Unknown
Sunlit
N/A
Visualization observer readout
Local Sidereal Time
17:31:29
Azimuth
Unknown
Elevation
Unknown
Doppler factor
Unknown
Orbital elements
Apogee altitude
565.559 km
Perigee altitude
557.077 km
Semi-major axis
6,939.455 km
Eccentricity
0.00061
Inclination
97.6947°
RAAN
204.6114°
Arg. of periapsis
268.4459°
True anomaly
91.67651°
Mean anomaly
91.6065°
Eccentric anomaly
91.6415°
Mean motion
3.75453 °/min
Orbital period
95.88 mins
BSTAR
0.00036983
Loading maneuver chart data...
Computing Atmospheric mass density...
Loading historical data...
Loading historical data...
Loading historical data...
Loading historical data...
Loading historical data...
Loading historical data...
Loading historical data...

Documentation

Showing up to 5 results
|